Weather in Korets

Ukraine / Rovno District     50°37′01″N   27°09′38″E
temp.,
°C
wind,
m/s
gust,
m/s
humid.,
%
clouds,
%
prec.,
mm/h
press.,
hPa
HPBL,
m
19 april, mon
mon1900:00+7e4895100 0.1 1018221
03:00+7e3593100 0.3 1018180
06:00+4ene3593100 0.0 1018118
09:00+7e347534 0.0 1018343
12:00+11ese45569 0.0 10171357
15:00+12e555199 0.1 10161450
18:00+11e4764100 0.0 1016541
21:00+8ene497696 0.1 1016256
20 april, tue
tue2000:00+5ene348610 0.0 101660
03:00+4ne339132 0.0 101551
06:00+4ne349586 0.0 101491
09:00+7nne358319 0.3 1014311
12:00+9ne5671100 0.4 10131008
15:00+11nne555795 0.8 10111433
18:00+10nne566259 0.1 10101160
21:00+6nne22775 0.1 101211
21 april, wed
wed2100:00+4nw22825 0.0 101215
03:00+3w338829 0.0 101233
06:00+3w349388 0.0 101268
09:00+8w467779 0.3 1012403
12:00+12w566120 1.0 10111290
15:00+14w5754100 2.9 10101639
18:00+12wnw5866100 2.4 1011824
21:00+8sw347890 2.9 101248
22 april, thu
thu2200:00+6sw368768 0.1 101396
03:00+6sw499222 0.1 1014171
06:00+5sw489393 0.0 1014157
09:00+9wsw587870 0.0 1015415
12:00+13w576185 0.2 10151445
15:00+11w687478 0.8 10151030
18:00+10wsw367975 0.1 1016466
21:00+7s2290100 0.1 101630
23 april, fri
fri2300:00+7sse3493100 0.0 101458
03:00+7wsw3795100 0.7 1014388
06:00+5nnw3792100 0.3 1015438
09:00+6wnw3673100 1.1 1016968
12:00+8wnw5660100 0.3 10171381
15:00+10wnw4647100 0.3 10172023
18:00+9wnw675972 0.1 10171436
21:00+4wnw48805 0.3 1019183